FW4288 Weather Reports


time (UTC)temp
F
wind
direction
speed
knots
gust
knots
rain 1hr
in
rain 24hr
in
rain mn
in
humidity
%
barometer
mb
20260504151013 53 95 1.7 5.2 0.00 0.00 0.00 57 1010.7
20260504150513 53 322 2.6 7.0 0.00 0.00 0.00 55 1010.7
20260504140513 55 83 1.7 4.3 0.00 0.00 0.00 52 1010.7
20260504130513 51 247 1.7 4.3 0.00 0.00 0.00 54 1011.1
20260504100514 35 13 0.0 1.7 0.00 0.00 0.00 84 1011.2
20260504081514 39 28 0.9 4.3 0.00 0.00 0.00 80 1011.3
20260504081014 39 157 0.9 7.8 0.00 0.00 0.00 80 1011.3
20260504080514 39 176 0.9 7.8 0.00 0.00 0.00 80 1011.4
20260504050014 40 229 0.9 2.6 0.00 0.01 0.00 71 1012.1
20260504045514 40 242 0.9 3.5 0.00 0.02 0.00 71 1012.0
20260504045015 40 227 0.9 3.5 0.00 0.02 0.00 70 1012.0
20260504044514 40 182 1.7 3.5 0.00 0.02 0.00 71 1012.1
20260504044014 40 235 1.7 3.5 0.00 0.02 0.00 70 1012.0
20260504043014 40 16 0.9 3.5 0.00 0.02 0.00 71 1012.1
20260504042014 40 117 1.7 7.0 0.00 0.02 0.00 69 1012.1
20260504041514 40 225 1.7 7.8 0.00 0.02 0.00 68 1012.1
20260504041014 39 197 1.7 4.3 0.00 0.02 0.00 68 1012.0
20260504040514 39 110 0.9 3.5 0.00 0.02 0.00 68 1011.9
20260504035514 39 165 0.9 5.2 0.00 0.02 0.02 67 1011.8
20260504035014 39 71 0.9 3.5 0.00 0.02 0.02 66 1011.8
20260504034514 39 175 0.9 3.5 0.00 0.02 0.02 67 1011.7
20260504034014 39 145 0.9 3.5 0.00 0.02 0.02 66 1011.8
20260504033514 39 312 0.9 3.5 0.00 0.02 0.02 66 1011.7
20260504032514 39 221 1.7 7.0 0.00 0.02 0.02 66 1011.7
20260504032014 39 207 1.7 7.0 0.00 0.02 0.02 64 1011.7
20260504030514 39 101 0.9 2.6 0.00 0.02 0.02 64 1011.6
20260504030014 39 136 0.9 2.6 0.00 0.02 0.02 63 1011.5
20260504025514 39 122 0.9 4.3 0.00 0.02 0.02 62 1011.4
20260504025014 39 132 0.9 4.3 0.00 0.02 0.02 60 1011.4
20260504024515 40 146 0.9 4.3 0.00 0.02 0.02 60 1011.6
20260504023514 40 130 0.9 5.2 0.00 0.02 0.02 61 1011.7
20260504023014 40 168 1.7 5.2 0.00 0.02 0.02 59 1011.7
20260504022514 40 205 0.9 3.5 0.00 0.02 0.02 59 1011.8
20260504022014 40 153 0.9 4.3 0.00 0.02 0.02 60 1011.8
20260504021514 40 198 1.7 5.2 0.00 0.02 0.02 59 1012.0
20260504021014 40 171 1.7 5.2 0.00 0.02 0.02 60 1012.0
20260504020514 40 235 1.7 5.2 0.00 0.02 0.02 60 1012.0
20260504020015 40 213 0.9 4.3 0.00 0.02 0.02 59 1011.9
20260504015514 40 242 1.7 6.1 0.00 0.02 0.02 59 1011.9
20260504015014 40 150 1.7 6.1 0.00 0.02 0.02 59 1011.8
20260504014514 39 82 1.7 5.2 0.00 0.02 0.02 58 1011.7
20260504014014 39 32 0.9 4.3 0.00 0.02 0.02 61 1011.7
20260504013014 39 109 0.9 2.6 0.00 0.02 0.02 62 1011.7
20260504012514 39 74 0.9 4.3 0.00 0.02 0.02 62 1011.6
20260504012014 39 319 1.7 4.3 0.00 0.02 0.02 59 1011.6
20260504011514 40 221 0.9 5.2 0.00 0.02 0.02 58 1011.4
20260504011014 40 139 0.9 5.2 0.00 0.02 0.02 55 1011.4
20260504010514 40 200 0.9 3.5 0.00 0.02 0.02 56 1011.4
20260504010014 40 152 0.9 1.7 0.00 0.03 0.02 57 1011.2
20260504005514 40 153 1.7 3.5 0.00 0.03 0.02 56 1011.2
20260504005014 40 193 0.9 3.5 0.00 0.03 0.02 54 1011.2
20260504004514 40 280 0.9 3.5 0.00 0.03 0.02 55 1011.2
20260504004014 41 36 1.7 6.1 0.00 0.03 0.02 54 1011.0
20260504003513 41 186 1.7 5.2 0.00 0.03 0.02 55 1010.9
20260504003013 41 32 1.7 7.0 0.00 0.03 0.02 51 1010.7
20260504002513 41 140 1.7 6.1 0.00 0.03 0.02 53 1010.7
20260504001513 41 360 1.7 5.2 0.00 0.03 0.02 54 1010.5
20260504001013 40 303 1.7 5.2 0.00 0.03 0.02 55 1010.4
20260504000513 40 144 0.9 3.5 0.00 0.03 0.02 52 1010.4
20260503235513 41 262 1.7 6.1 0.00 0.03 0.02 55 1010.3
20260503235013 41 38 1.7 6.1 0.00 0.03 0.02 52 1010.3
20260503234513 40 250 0.9 3.5 0.00 0.03 0.02 57 1010.2
20260503234013 41 136 0.9 3.5 0.00 0.03 0.02 56 1010.3
20260503233013 41 271 0.9 3.5 0.00 0.03 0.02 56 1010.2
20260503232513 41 159 0.9 3.5 0.00 0.03 0.02 54 1010.2
20260503232013 41 10 0.9 3.5 0.00 0.03 0.02 51 1010.2
20260503231513 41 13 0.9 3.5 0.00 0.03 0.02 53 1010.0
20260503231013 41 168 0.9 4.3 0.00 0.03 0.02 54 1010.0
20260503230513 42 168 0.9 4.3 0.00 0.03 0.02 55 1010.0
20260503225513 42 261 1.7 7.8 0.00 0.03 0.02 54 1009.9
20260503224513 42 234 1.7 3.5 0.00 0.03 0.02 51 1009.8
20260503224013 43 165 0.9 4.3 0.00 0.03 0.02 53 1009.9
20260503223514 43 120 0.9 2.6 0.00 0.03 0.02 50 1009.8
20260503223013 43 248 1.7 2.6 0.00 0.03 0.02 51 1009.9
20260503222013 43 82 1.7 5.2 0.00 0.03 0.02 50 1009.7
20260503221513 43 174 2.6 6.1 0.00 0.03 0.02 50 1009.7
20260503221013 43 192 2.6 5.2 0.00 0.03 0.02 52 1009.7
20260503220013 43 248 1.7 7.0 0.00 0.04 0.02 52 1009.8
20260503215513 42 245 1.7 9.6 0.00 0.04 0.02 54 1009.8
20260503215013 43 287 1.7 9.6 0.00 0.04 0.02 51 1009.8
20260503214513 43 269 1.7 7.0 0.00 0.04 0.02 53 1009.7
20260503213513 42 92 1.7 6.1 0.00 0.04 0.02 53 1009.7
20260503213013 42 277 1.7 4.3 0.00 0.04 0.02 52 1009.8
20260503212513 43 88 1.7 5.2 0.00 0.04 0.02 51 1009.7
20260503212013 42 279 1.7 5.2 0.00 0.04 0.02 51 1009.7
20260503211513 42 160 1.7 10.4 0.00 0.04 0.02 54 1009.9
20260503211013 42 316 1.7 10.4 0.00 0.04 0.02 53 1009.8
20260503210513 43 202 2.6 7.0 0.00 0.04 0.02 53 1009.8
20260503210013 43 229 2.6 7.8 0.00 0.04 0.02 52 1009.8
20260503205013 42 267 1.7 6.1 0.00 0.04 0.02 53 1009.8
20260503204513 43 349 1.7 7.0 0.00 0.04 0.02 53 1009.8
20260503203513 42 175 2.6 8.7 0.00 0.04 0.02 54 1010.0
20260503203013 42 236 2.6 9.6 0.00 0.04 0.02 53 1009.9
20260503202513 43 304 1.7 9.6 0.00 0.04 0.02 52 1010.0
20260503202013 43 142 1.7 7.0 0.00 0.04 0.02 54 1009.9
20260503201513 42 150 1.7 7.0 0.00 0.04 0.02 55 1009.9
20260503201013 42 86 1.7 4.3 0.00 0.04 0.02 55 1010.0
20260503200513 42 205 1.7 6.1 0.00 0.04 0.02 55 1010.0
20260503200013 42 131 2.6 7.8 0.00 0.05 0.02 55 1010.1
20260503195513 42 360 2.6 7.8 0.00 0.05 0.02 52 1010.1
20260503195013 42 152 2.6 6.1 0.00 0.05 0.02 53 1010.2
20260503194513 43 15 2.6 7.8 0.00 0.05 0.02 53 1010.1
20260503194013 42 240 2.6 13.9 0.00 0.05 0.02 53 1010.1
20260503193514 42 257 3.5 13.9 0.00 0.05 0.02 54 1010.1
20260503193013 42 116 2.6 6.1 0.00 0.05 0.02 53 1010.1
20260503192013 42 331 2.6 8.7 0.00 0.05 0.02 53 1010.2
20260503191513 42 126 1.7 7.8 0.00 0.05 0.02 53 1010.1
20260503191013 42 209 1.7 7.8 0.00 0.05 0.02 54 1010.0
20260503190513 42 225 2.6 7.0 0.00 0.05 0.02 55 1010.1
20260503190016 42 35 2.6 8.7 0.00 0.05 0.02 52 1010.1
20260503185513 42 55 2.6 7.8 0.00 0.05 0.02 52 1010.3
20260503185013 42 192 2.6 6.1 0.00 0.05 0.02 55 1010.1
20260503184513 42 155 2.6 7.8 0.00 0.05 0.02 55 1009.9
20260503183513 42 245 2.6 7.8 0.00 0.05 0.02 53 1009.9
20260503183013 42 34 2.6 8.7 0.00 0.05 0.02 52 1010.2
20260503182513 42 68 2.6 8.7 0.00 0.05 0.02 52 1010.1
20260503182013 42 223 2.6 13.9 0.00 0.05 0.02 52 1009.9
20260503181513 42 34 2.6 13.9 0.00 0.05 0.02 58 1010.1
20260503181013 41 136 2.6 10.4 0.00 0.05 0.02 53 1010.0
20260503180014 41 103 2.6 8.7 0.00 0.05 0.02 57 1010.0
20260503175513 41 146 1.7 7.8 0.00 0.05 0.02 55 1010.0
20260503175013 42 119 2.6 7.0 0.00 0.05 0.02 56 1010.0
20260503174513 42 200 2.6 17.4 0.00 0.05 0.02 54 1010.0
20260503174013 42 153 2.6 17.4 0.00 0.05 0.02 56 1009.9
20260503172513 41 104 1.7 7.8 0.00 0.05 0.02 57 1009.9
20260503172013 41 175 1.7 6.1 0.00 0.05 0.02 57 1009.9
20260503171513 41 221 2.6 7.0 0.00 0.05 0.02 57 1009.9
20260503171013 41 213 2.6 7.0 0.00 0.05 0.02 57 1009.8